Year,Month,Day,Hour,Minute,Value (Times are PST for temperature in C)
2007,06,08,00,00,6.80
2007,06,08,00,01,6.80
2007,06,08,00,02,6.70
2007,06,08,00,03,6.70
2007,06,08,00,04,6.70
2007,06,08,00,05,6.70
2007,06,08,00,06,6.70
2007,06,08,00,07,6.70
2007,06,08,00,08,6.70
2007,06,08,00,09,6.70
2007,06,08,00,10,6.60
2007,06,08,00,11,6.60
2007,06,08,00,12,6.60
2007,06,08,00,13,6.60
2007,06,08,00,14,6.60
2007,06,08,00,15,6.50
2007,06,08,00,16,6.50
2007,06,08,00,17,6.50
2007,06,08,00,18,6.50
2007,06,08,00,19,6.50
2007,06,08,00,20,6.50
2007,06,08,00,21,6.40
2007,06,08,00,22,6.40
2007,06,08,00,23,6.40
2007,06,08,00,24,6.40
2007,06,08,00,25,6.40
2007,06,08,00,26,6.40
2007,06,08,00,27,6.30
2007,06,08,00,28,6.30
2007,06,08,00,29,6.30
2007,06,08,00,30,6.30
2007,06,08,00,31,6.30
2007,06,08,00,32,6.30
2007,06,08,00,33,6.30
2007,06,08,00,34,6.30
2007,06,08,00,35,6.30
2007,06,08,00,36,6.30
2007,06,08,00,37,6.30
2007,06,08,00,38,6.30
2007,06,08,00,39,6.30
2007,06,08,00,40,6.30
2007,06,08,00,41,6.40
2007,06,08,00,42,6.30
2007,06,08,00,43,6.30
2007,06,08,00,44,6.30
2007,06,08,00,45,6.30
2007,06,08,00,46,6.30
2007,06,08,00,47,6.30
2007,06,08,00,48,6.20
2007,06,08,00,49,6.20
2007,06,08,00,50,6.20
2007,06,08,00,51,6.20
2007,06,08,00,52,6.20
2007,06,08,00,53,6.10
2007,06,08,00,54,6.10
2007,06,08,00,55,6.10
2007,06,08,00,56,6.10
2007,06,08,00,57,6.10
2007,06,08,00,58,6.10
2007,06,08,00,59,6.00
2007,06,08,01,00,6.00
2007,06,08,01,01,6.00
2007,06,08,01,02,6.00
2007,06,08,01,03,6.00
2007,06,08,01,04,6.00
2007,06,08,01,05,6.00
2007,06,08,01,06,6.00
2007,06,08,01,07,6.00
2007,06,08,01,08,5.90
2007,06,08,01,09,5.90
2007,06,08,01,10,5.90
2007,06,08,01,11,5.90
2007,06,08,01,12,5.90
2007,06,08,01,13,5.80
2007,06,08,01,14,5.80
2007,06,08,01,15,5.80
2007,06,08,01,16,5.80
2007,06,08,01,17,5.80
2007,06,08,01,18,5.80
2007,06,08,01,19,5.70
2007,06,08,01,20,5.70
2007,06,08,01,21,5.70
2007,06,08,01,22,5.70
2007,06,08,01,23,5.70
2007,06,08,01,24,5.70
2007,06,08,01,25,5.70
2007,06,08,01,26,5.70
2007,06,08,01,27,5.60
2007,06,08,01,28,5.60
2007,06,08,01,29,5.60
2007,06,08,01,30,5.60
2007,06,08,01,31,5.60
2007,06,08,01,32,5.60
2007,06,08,01,33,5.50
2007,06,08,01,34,5.50
2007,06,08,01,35,5.50
2007,06,08,01,36,5.50
2007,06,08,01,37,5.40
2007,06,08,01,38,5.40
2007,06,08,01,39,5.40
2007,06,08,01,40,5.40
2007,06,08,01,41,5.40
2007,06,08,01,42,5.40
2007,06,08,01,43,5.40
2007,06,08,01,44,5.30
2007,06,08,01,45,5.30
2007,06,08,01,46,5.30
2007,06,08,01,47,5.30
2007,06,08,01,48,5.30
2007,06,08,01,49,5.30
2007,06,08,01,50,5.20
2007,06,08,01,51,5.20
2007,06,08,01,52,5.20
2007,06,08,01,53,5.20
2007,06,08,01,54,5.20
2007,06,08,01,55,5.20
2007,06,08,01,56,5.10
2007,06,08,01,57,5.10
2007,06,08,01,58,5.10
2007,06,08,01,59,5.10
2007,06,08,02,00,5.10
2007,06,08,02,01,5.10
2007,06,08,02,02,5.10
2007,06,08,02,03,5.00
2007,06,08,02,04,5.00
2007,06,08,02,05,5.00
2007,06,08,02,06,5.00
2007,06,08,02,07,4.90
2007,06,08,02,08,4.90
2007,06,08,02,09,4.90
2007,06,08,02,10,4.90
2007,06,08,02,11,4.90
2007,06,08,02,12,4.90
2007,06,08,02,13,4.90
2007,06,08,02,14,4.90
2007,06,08,02,15,4.90
2007,06,08,02,16,4.80
2007,06,08,02,17,4.80
2007,06,08,02,18,4.80
2007,06,08,02,19,4.80
2007,06,08,02,20,4.80
2007,06,08,02,21,4.80
2007,06,08,02,22,4.80
2007,06,08,02,23,4.80
2007,06,08,02,24,4.80
2007,06,08,02,25,4.80
2007,06,08,02,26,4.70
2007,06,08,02,27,4.70
2007,06,08,02,28,4.70
2007,06,08,02,29,4.70
2007,06,08,02,30,4.70
2007,06,08,02,31,4.70
2007,06,08,02,32,4.70
2007,06,08,02,33,4.70
2007,06,08,02,34,4.70
2007,06,08,02,35,4.70
2007,06,08,02,36,4.60
2007,06,08,02,37,4.60
2007,06,08,02,38,4.60
2007,06,08,02,39,4.60
2007,06,08,02,40,4.60
2007,06,08,02,41,4.60
2007,06,08,02,42,4.60
2007,06,08,02,43,4.60
2007,06,08,02,44,4.60
2007,06,08,02,45,4.60
2007,06,08,02,46,4.60
2007,06,08,02,47,4.50
2007,06,08,02,48,4.50
2007,06,08,02,49,4.50
2007,06,08,02,50,4.50
2007,06,08,02,51,4.50
2007,06,08,02,52,4.50
2007,06,08,02,53,4.50
2007,06,08,02,54,4.50
2007,06,08,02,55,4.50
2007,06,08,02,56,4.50
2007,06,08,02,57,4.50
2007,06,08,02,58,4.50
2007,06,08,02,59,4.40
2007,06,08,03,00,4.40
2007,06,08,03,01,4.40
2007,06,08,03,02,4.40
2007,06,08,03,03,4.40
2007,06,08,03,04,4.40
2007,06,08,03,05,4.40
2007,06,08,03,06,4.40
2007,06,08,03,07,4.40
2007,06,08,03,08,4.40
2007,06,08,03,09,4.40
2007,06,08,03,10,4.40
2007,06,08,03,11,4.30
2007,06,08,03,12,4.30
2007,06,08,03,13,4.30
2007,06,08,03,14,4.30
2007,06,08,03,15,4.30
2007,06,08,03,16,4.30
2007,06,08,03,17,4.30
2007,06,08,03,18,4.30
2007,06,08,03,19,4.30
2007,06,08,03,20,4.30
2007,06,08,03,21,4.30
2007,06,08,03,22,4.30
2007,06,08,03,23,4.30
2007,06,08,03,24,4.30
2007,06,08,03,25,4.30
2007,06,08,03,26,4.30
2007,06,08,03,27,4.30
2007,06,08,03,28,4.30
2007,06,08,03,29,4.30
2007,06,08,03,30,4.30
2007,06,08,03,31,4.30
2007,06,08,03,32,4.30
2007,06,08,03,33,4.30
2007,06,08,03,34,4.30
2007,06,08,03,35,4.30
2007,06,08,03,36,4.30
2007,06,08,03,37,4.30
2007,06,08,03,38,4.30
2007,06,08,03,39,4.30
2007,06,08,03,40,4.30
2007,06,08,03,41,4.30
2007,06,08,03,42,4.30
2007,06,08,03,43,4.30
2007,06,08,03,44,4.30
2007,06,08,03,45,4.30
2007,06,08,03,46,4.20
2007,06,08,03,47,4.20
2007,06,08,03,48,4.20
2007,06,08,03,49,4.20
2007,06,08,03,50,4.20
2007,06,08,03,51,4.20
2007,06,08,03,52,4.20
2007,06,08,03,53,4.20
2007,06,08,03,54,4.20
2007,06,08,03,55,4.20
2007,06,08,03,56,4.20
2007,06,08,03,57,4.20
2007,06,08,03,58,4.20
2007,06,08,03,59,4.20
2007,06,08,04,00,4.20
2007,06,08,04,01,4.20
2007,06,08,04,02,4.10
2007,06,08,04,03,4.10
2007,06,08,04,04,4.10
2007,06,08,04,05,4.10
2007,06,08,04,06,4.10
2007,06,08,04,07,4.10
2007,06,08,04,08,4.10
2007,06,08,04,09,4.10
2007,06,08,04,10,4.10
2007,06,08,04,11,4.10
2007,06,08,04,12,4.10
2007,06,08,04,13,4.10
2007,06,08,04,14,4.10
2007,06,08,04,15,4.10
2007,06,08,04,16,4.10
2007,06,08,04,17,4.10
2007,06,08,04,18,4.10
2007,06,08,04,19,4.10
2007,06,08,04,20,4.10
2007,06,08,04,21,4.10
2007,06,08,04,22,4.00
2007,06,08,04,23,4.00
2007,06,08,04,24,4.00
2007,06,08,04,25,4.00
2007,06,08,04,26,4.00
2007,06,08,04,27,4.00
2007,06,08,04,28,4.00
2007,06,08,04,29,4.00
2007,06,08,04,30,4.00
2007,06,08,04,31,3.90
2007,06,08,04,32,3.90
2007,06,08,04,33,3.90
2007,06,08,04,34,3.90
2007,06,08,04,35,3.90
2007,06,08,04,36,3.90
2007,06,08,04,37,3.90
2007,06,08,04,38,3.90
2007,06,08,04,39,3.90
2007,06,08,04,40,3.90
2007,06,08,04,41,3.90
2007,06,08,04,42,3.90
2007,06,08,04,43,3.90
2007,06,08,04,44,3.90
2007,06,08,04,45,3.90
2007,06,08,04,46,3.90
2007,06,08,04,47,3.90
2007,06,08,04,48,3.90
2007,06,08,04,49,3.90
2007,06,08,04,50,3.90
2007,06,08,04,51,3.90
2007,06,08,04,52,3.90
2007,06,08,04,53,3.90
2007,06,08,04,54,3.90
2007,06,08,04,55,3.90
2007,06,08,04,56,3.90
2007,06,08,04,57,3.90
2007,06,08,04,58,3.90
2007,06,08,04,59,3.90
2007,06,08,05,00,3.90
2007,06,08,05,01,3.90
2007,06,08,05,02,3.90
2007,06,08,05,03,3.90
2007,06,08,05,04,3.90
2007,06,08,05,05,3.90
2007,06,08,05,06,3.80
2007,06,08,05,07,3.80
2007,06,08,05,08,3.80
2007,06,08,05,09,3.90
2007,06,08,05,10,3.90
2007,06,08,05,11,3.90
2007,06,08,05,12,3.90
2007,06,08,05,13,3.90
2007,06,08,05,14,3.90
2007,06,08,05,15,3.90
2007,06,08,05,16,3.90
2007,06,08,05,17,3.90
2007,06,08,05,18,3.90
2007,06,08,05,19,3.90
2007,06,08,05,20,3.90
2007,06,08,05,21,3.90
2007,06,08,05,22,4.00
2007,06,08,05,23,4.00
2007,06,08,05,24,4.00
2007,06,08,05,25,4.00
2007,06,08,05,26,4.00
2007,06,08,05,27,4.10
2007,06,08,05,28,4.10
2007,06,08,05,29,4.10
2007,06,08,05,30,4.10
2007,06,08,05,31,4.10
2007,06,08,05,32,4.10
2007,06,08,05,33,4.20
2007,06,08,05,34,4.20
2007,06,08,05,35,4.20
2007,06,08,05,36,4.20
2007,06,08,05,37,4.20
2007,06,08,05,38,4.20
2007,06,08,05,39,4.30
2007,06,08,05,40,4.30
2007,06,08,05,41,4.30
2007,06,08,05,42,4.30
2007,06,08,05,43,4.40
2007,06,08,05,44,4.40
2007,06,08,05,45,4.40
2007,06,08,05,46,4.50
2007,06,08,05,47,4.50
2007,06,08,05,48,4.60
2007,06,08,05,49,4.60
2007,06,08,05,50,4.60
2007,06,08,05,51,4.70
2007,06,08,05,52,4.70
2007,06,08,05,53,4.70
2007,06,08,05,54,4.80
2007,06,08,05,55,4.80
2007,06,08,05,56,4.80
2007,06,08,05,57,4.90
2007,06,08,05,58,4.90
2007,06,08,05,59,5.00
2007,06,08,06,00,5.00
2007,06,08,06,01,5.10
2007,06,08,06,02,5.10
2007,06,08,06,03,5.10
2007,06,08,06,04,5.20
2007,06,08,06,05,5.20
2007,06,08,06,06,5.20
2007,06,08,06,07,5.30
2007,06,08,06,08,5.30
2007,06,08,06,09,5.30
2007,06,08,06,10,5.40
2007,06,08,06,11,5.40
2007,06,08,06,12,5.40
2007,06,08,06,13,5.50
2007,06,08,06,14,5.50
2007,06,08,06,15,5.60
2007,06,08,06,16,5.60
2007,06,08,06,17,5.60
2007,06,08,06,18,5.70
2007,06,08,06,19,5.70
2007,06,08,06,20,5.70
2007,06,08,06,21,5.80
2007,06,08,06,22,5.80
2007,06,08,06,23,5.80
2007,06,08,06,24,5.90
2007,06,08,06,25,5.90
2007,06,08,06,26,5.90
2007,06,08,06,27,6.00
2007,06,08,06,28,6.00
2007,06,08,06,29,6.10
2007,06,08,06,30,6.10
2007,06,08,06,31,6.10
2007,06,08,06,32,6.20
2007,06,08,06,33,6.20
2007,06,08,06,34,6.20
2007,06,08,06,35,6.30
2007,06,08,06,36,6.30
2007,06,08,06,37,6.40
2007,06,08,06,38,6.40
2007,06,08,06,39,6.40
2007,06,08,06,40,6.50
2007,06,08,06,41,6.50
2007,06,08,06,42,6.60
2007,06,08,06,43,6.60
2007,06,08,06,44,6.70
2007,06,08,06,45,6.70
2007,06,08,06,46,6.70
2007,06,08,06,47,6.80
2007,06,08,06,48,6.80
2007,06,08,06,49,6.90
2007,06,08,06,50,6.90
2007,06,08,06,51,7.00
2007,06,08,06,52,7.00
2007,06,08,06,53,7.10
2007,06,08,06,54,7.10
2007,06,08,06,55,7.20
2007,06,08,06,56,7.20
2007,06,08,06,57,7.20
2007,06,08,06,58,7.20
2007,06,08,06,59,7.30
2007,06,08,07,00,7.30
2007,06,08,07,01,7.40
2007,06,08,07,02,7.40
2007,06,08,07,03,7.50
2007,06,08,07,04,7.50
2007,06,08,07,05,7.60
2007,06,08,07,06,7.60
2007,06,08,07,07,7.70
2007,06,08,07,08,7.70
2007,06,08,07,09,7.70
2007,06,08,07,10,7.80
2007,06,08,07,11,7.80
2007,06,08,07,12,7.90
2007,06,08,07,13,7.90
2007,06,08,07,14,8.00
2007,06,08,07,15,8.00
2007,06,08,07,16,8.10
2007,06,08,07,17,8.10
2007,06,08,07,18,8.20
2007,06,08,07,19,8.20
2007,06,08,07,20,8.30
2007,06,08,07,21,8.40
2007,06,08,07,22,8.50
2007,06,08,07,23,8.60
2007,06,08,07,24,8.70
2007,06,08,07,25,8.80
2007,06,08,07,26,8.90
2007,06,08,07,27,9.00
2007,06,08,07,28,9.00
2007,06,08,07,29,9.10
2007,06,08,07,30,9.10
2007,06,08,07,31,9.20
2007,06,08,07,32,9.30
2007,06,08,07,33,9.50
2007,06,08,07,34,9.60
2007,06,08,07,35,9.80
2007,06,08,07,36,9.90
2007,06,08,07,37,10.00
2007,06,08,07,38,10.20
2007,06,08,07,39,10.30
2007,06,08,07,40,10.50
2007,06,08,07,41,10.60
2007,06,08,07,42,10.80
2007,06,08,07,43,10.90
2007,06,08,07,44,11.00
2007,06,08,07,45,11.20
2007,06,08,07,46,11.30
2007,06,08,07,47,11.40
2007,06,08,07,48,11.50
2007,06,08,07,49,11.60
2007,06,08,07,50,11.70
2007,06,08,07,51,11.70
2007,06,08,07,52,11.80
2007,06,08,07,53,11.80
2007,06,08,07,54,11.80
2007,06,08,07,55,11.80
2007,06,08,07,56,11.90
2007,06,08,07,57,11.90
2007,06,08,07,58,11.90
2007,06,08,07,59,11.90
2007,06,08,08,00,12.00
2007,06,08,08,01,12.00
2007,06,08,08,02,12.10
2007,06,08,08,03,12.10
2007,06,08,08,04,12.20
2007,06,08,08,05,12.30
2007,06,08,08,06,12.30
2007,06,08,08,07,12.40
2007,06,08,08,08,12.50
2007,06,08,08,09,12.50
2007,06,08,08,10,12.60
2007,06,08,08,11,12.70
2007,06,08,08,12,12.70
2007,06,08,08,13,12.80
2007,06,08,08,14,12.80
2007,06,08,08,15,12.90
2007,06,08,08,16,12.90
2007,06,08,08,17,12.90
2007,06,08,08,18,12.90
2007,06,08,08,19,12.90
2007,06,08,08,20,12.90
2007,06,08,08,21,12.90
2007,06,08,08,22,12.90
2007,06,08,08,23,12.90
2007,06,08,08,24,13.00
2007,06,08,08,25,13.00
2007,06,08,08,26,13.10
2007,06,08,08,27,13.10
2007,06,08,08,28,13.10
2007,06,08,08,29,13.10
2007,06,08,08,30,13.10
2007,06,08,08,31,13.20
2007,06,08,08,32,13.20
2007,06,08,08,33,13.30
2007,06,08,08,34,13.40
2007,06,08,08,35,13.40
2007,06,08,08,36,13.50
2007,06,08,08,37,13.50
2007,06,08,08,38,13.30
2007,06,08,08,39,13.30
2007,06,08,08,40,13.30
2007,06,08,08,41,13.30
2007,06,08,08,42,13.20
2007,06,08,08,43,13.20
2007,06,08,08,44,13.10
2007,06,08,08,45,13.10
2007,06,08,08,46,13.10
2007,06,08,08,47,13.00
2007,06,08,08,48,13.00
2007,06,08,08,49,13.00
2007,06,08,08,50,13.00
2007,06,08,08,51,12.90
2007,06,08,08,52,12.90
2007,06,08,08,53,12.90
2007,06,08,08,54,12.80
2007,06,08,08,55,12.90
2007,06,08,08,56,12.90
2007,06,08,08,57,13.00
2007,06,08,08,58,13.10
2007,06,08,08,59,13.20
2007,06,08,09,00,13.20
2007,06,08,09,01,13.20
2007,06,08,09,02,13.20
2007,06,08,09,03,13.30
2007,06,08,09,04,13.30
2007,06,08,09,05,13.40
2007,06,08,09,06,13.40
2007,06,08,09,07,13.40
2007,06,08,09,08,13.50
2007,06,08,09,09,13.50
2007,06,08,09,10,13.60
2007,06,08,09,11,13.70
2007,06,08,09,12,13.80
2007,06,08,09,13,13.80
2007,06,08,09,14,13.80
2007,06,08,09,15,13.80
2007,06,08,09,16,13.80
2007,06,08,09,17,13.80
2007,06,08,09,18,13.80
2007,06,08,09,19,13.90
2007,06,08,09,20,13.90
2007,06,08,09,21,14.00
2007,06,08,09,22,14.10
2007,06,08,09,23,14.20
2007,06,08,09,24,14.30
2007,06,08,09,25,14.30
2007,06,08,09,26,14.40
2007,06,08,09,27,14.50
2007,06,08,09,28,14.60
2007,06,08,09,29,14.60
2007,06,08,09,30,14.60
2007,06,08,09,31,14.60
2007,06,08,09,32,14.60
2007,06,08,09,33,14.70
2007,06,08,09,34,14.70
2007,06,08,09,35,14.80
2007,06,08,09,36,14.80
2007,06,08,09,37,14.80
2007,06,08,09,38,14.80
2007,06,08,09,39,14.80
2007,06,08,09,40,14.80
2007,06,08,09,41,14.80
2007,06,08,09,42,14.70
2007,06,08,09,43,14.50
2007,06,08,09,44,14.50
2007,06,08,09,45,14.40
2007,06,08,09,46,14.30
2007,06,08,09,47,14.20
2007,06,08,09,48,14.20
2007,06,08,09,49,14.10
2007,06,08,09,50,14.00
2007,06,08,09,51,13.90
2007,06,08,09,52,13.80
2007,06,08,09,53,13.80
2007,06,08,09,54,13.70
2007,06,08,09,55,13.70
2007,06,08,09,56,13.70
2007,06,08,09,57,13.70
2007,06,08,09,58,13.70
2007,06,08,09,59,13.70
2007,06,08,10,00,13.70
2007,06,08,10,01,13.70
2007,06,08,10,02,13.80
2007,06,08,10,03,13.80
2007,06,08,10,04,13.80
2007,06,08,10,05,13.80
2007,06,08,10,06,13.80
2007,06,08,10,07,13.80
2007,06,08,10,08,13.80
2007,06,08,10,09,13.80
2007,06,08,10,10,13.70
2007,06,08,10,11,13.70
2007,06,08,10,12,13.70
2007,06,08,10,13,13.70
2007,06,08,10,14,13.70
2007,06,08,10,15,13.70
2007,06,08,10,16,13.70
2007,06,08,10,17,13.70
2007,06,08,10,18,13.70
2007,06,08,10,19,13.70
2007,06,08,10,20,13.70
2007,06,08,10,21,13.60
2007,06,08,10,22,13.60
2007,06,08,10,23,13.60
2007,06,08,10,24,13.60
2007,06,08,10,25,13.60
2007,06,08,10,26,13.60
2007,06,08,10,27,13.70
2007,06,08,10,28,13.70
2007,06,08,10,29,13.70
2007,06,08,10,30,13.70
2007,06,08,10,31,13.70
2007,06,08,10,32,13.70
2007,06,08,10,33,13.70
2007,06,08,10,34,13.70
2007,06,08,10,35,13.70
2007,06,08,10,36,13.70
2007,06,08,10,37,13.70
2007,06,08,10,38,13.80
2007,06,08,10,39,13.80
2007,06,08,10,40,13.90
2007,06,08,10,41,14.00
2007,06,08,10,42,14.10
2007,06,08,10,43,14.20
2007,06,08,10,44,14.20
2007,06,08,10,45,14.30
2007,06,08,10,46,14.30
2007,06,08,10,47,14.20
2007,06,08,10,48,14.20
2007,06,08,10,49,14.20
2007,06,08,10,50,14.20
2007,06,08,10,51,14.20
2007,06,08,10,52,14.20
2007,06,08,10,53,14.10
2007,06,08,10,54,14.10
2007,06,08,10,55,14.10
2007,06,08,10,56,14.10
2007,06,08,10,57,14.10
2007,06,08,10,58,14.20
2007,06,08,10,59,14.20
2007,06,08,11,00,14.20
2007,06,08,11,01,14.30
2007,06,08,11,02,14.30
2007,06,08,11,03,14.40
2007,06,08,11,04,14.40
2007,06,08,11,05,14.40
2007,06,08,11,06,14.40
2007,06,08,11,07,14.40
2007,06,08,11,08,14.30
2007,06,08,11,09,14.30
2007,06,08,11,10,14.30
2007,06,08,11,11,14.30
2007,06,08,11,12,14.30
2007,06,08,11,13,14.30
2007,06,08,11,14,14.30
2007,06,08,11,15,14.30
2007,06,08,11,16,14.20
2007,06,08,11,17,14.30
2007,06,08,11,18,14.30
2007,06,08,11,19,14.30
2007,06,08,11,20,14.30
2007,06,08,11,21,14.40
2007,06,08,11,22,14.40
2007,06,08,11,23,14.40
2007,06,08,11,24,14.40
2007,06,08,11,25,14.30
2007,06,08,11,26,14.30
2007,06,08,11,27,14.30
2007,06,08,11,28,14.30
2007,06,08,11,29,14.30
2007,06,08,11,30,14.40
2007,06,08,11,31,14.50
2007,06,08,11,32,14.60
2007,06,08,11,33,14.70
2007,06,08,11,34,14.80
2007,06,08,11,35,14.80
2007,06,08,11,36,15.00
2007,06,08,11,37,15.00
2007,06,08,11,38,15.00
2007,06,08,11,39,15.00
2007,06,08,11,40,15.10
2007,06,08,11,41,15.20
2007,06,08,11,42,15.30
2007,06,08,11,43,15.40
2007,06,08,11,44,15.50
2007,06,08,11,45,15.60
2007,06,08,11,46,15.70
2007,06,08,11,47,15.90
2007,06,08,11,48,16.00
2007,06,08,11,49,16.00
2007,06,08,11,50,15.90
2007,06,08,11,51,15.80
2007,06,08,11,52,15.80
2007,06,08,11,53,15.80
2007,06,08,11,54,15.80
2007,06,08,11,55,15.80
2007,06,08,11,56,15.90
2007,06,08,11,57,15.90
2007,06,08,11,58,16.00
2007,06,08,11,59,16.00
2007,06,08,12,00,15.90
2007,06,08,12,01,15.90
2007,06,08,12,02,15.90
2007,06,08,12,03,16.00
2007,06,08,12,04,16.10
2007,06,08,12,05,16.20
2007,06,08,12,06,16.30
2007,06,08,12,07,16.30
2007,06,08,12,08,16.40
2007,06,08,12,09,16.40
2007,06,08,12,10,16.50
2007,06,08,12,11,16.50
2007,06,08,12,12,16.50
2007,06,08,12,13,16.50
2007,06,08,12,14,16.50
2007,06,08,12,15,16.60
2007,06,08,12,16,16.60
2007,06,08,12,17,16.60
2007,06,08,12,18,16.70
2007,06,08,12,19,16.70
2007,06,08,12,20,16.80
2007,06,08,12,21,16.90
2007,06,08,12,22,17.00
2007,06,08,12,23,17.20
2007,06,08,12,24,17.30
2007,06,08,12,25,17.30
2007,06,08,12,26,17.30
2007,06,08,12,27,17.20
2007,06,08,12,28,17.20
2007,06,08,12,29,17.00
2007,06,08,12,30,16.80
2007,06,08,12,31,16.50
2007,06,08,12,32,16.40
2007,06,08,12,33,16.30
2007,06,08,12,34,16.30
2007,06,08,12,35,16.30
2007,06,08,12,36,16.20
2007,06,08,12,37,16.10
2007,06,08,12,38,16.00
2007,06,08,12,39,15.90
2007,06,08,12,40,15.90
2007,06,08,12,41,15.90
2007,06,08,12,42,16.00
2007,06,08,12,43,16.00
2007,06,08,12,44,16.10
2007,06,08,12,45,16.20
2007,06,08,12,46,16.20
2007,06,08,12,47,16.20
2007,06,08,12,48,16.10
2007,06,08,12,49,16.10
2007,06,08,12,50,16.10
2007,06,08,12,51,16.00
2007,06,08,12,52,16.00
2007,06,08,12,53,15.90
2007,06,08,12,54,15.90
2007,06,08,12,55,15.80
2007,06,08,12,56,15.80
2007,06,08,12,57,15.80
2007,06,08,12,58,15.80
2007,06,08,12,59,15.80
2007,06,08,13,00,15.80
2007,06,08,13,01,15.70
2007,06,08,13,02,15.70
2007,06,08,13,03,15.70
2007,06,08,13,04,15.70
2007,06,08,13,05,15.70
2007,06,08,13,06,15.80
2007,06,08,13,07,15.70
2007,06,08,13,08,15.70
2007,06,08,13,09,15.70
2007,06,08,13,10,15.80
2007,06,08,13,11,15.90
2007,06,08,13,12,15.90
2007,06,08,13,13,16.00
2007,06,08,13,14,16.20
2007,06,08,13,15,16.30
2007,06,08,13,16,16.40
2007,06,08,13,17,16.40
2007,06,08,13,18,16.40
2007,06,08,13,19,16.30
2007,06,08,13,20,16.10
2007,06,08,13,21,16.10
2007,06,08,13,22,16.00
2007,06,08,13,23,15.90
2007,06,08,13,24,15.90
2007,06,08,13,25,15.80
2007,06,08,13,26,15.70
2007,06,08,13,27,15.60
2007,06,08,13,28,15.60
2007,06,08,13,29,15.50
2007,06,08,13,30,15.50
2007,06,08,13,31,15.50
2007,06,08,13,32,15.60
2007,06,08,13,33,15.70
2007,06,08,13,34,15.70
2007,06,08,13,35,15.90
2007,06,08,13,36,16.00
2007,06,08,13,37,16.10
2007,06,08,13,38,16.20
2007,06,08,13,39,16.20
2007,06,08,13,40,16.30
2007,06,08,13,41,16.20
2007,06,08,13,42,16.20
2007,06,08,13,43,16.20
2007,06,08,13,44,16.10
2007,06,08,13,45,16.00
2007,06,08,13,46,15.90
2007,06,08,13,47,16.00
2007,06,08,13,48,16.10
2007,06,08,13,49,16.30
2007,06,08,13,50,16.40
2007,06,08,13,51,16.40
2007,06,08,13,52,16.40
2007,06,08,13,53,16.40
2007,06,08,13,54,16.30
2007,06,08,13,55,16.30
2007,06,08,13,56,16.30
2007,06,08,13,57,16.30
2007,06,08,13,58,16.40
2007,06,08,13,59,16.40
2007,06,08,14,00,16.40
2007,06,08,14,01,16.40
2007,06,08,14,02,16.40
2007,06,08,14,03,16.50
2007,06,08,14,04,16.60
2007,06,08,14,05,16.60
2007,06,08,14,06,16.60
2007,06,08,14,07,16.70
2007,06,08,14,08,16.70
2007,06,08,14,09,16.70
2007,06,08,14,10,16.60
2007,06,08,14,11,16.60
2007,06,08,14,12,16.50
2007,06,08,14,13,16.40
2007,06,08,14,14,16.40
2007,06,08,14,15,16.40
2007,06,08,14,16,16.40
2007,06,08,14,17,16.40
2007,06,08,14,18,16.40
2007,06,08,14,19,16.50
2007,06,08,14,20,16.60
2007,06,08,14,21,16.60
2007,06,08,14,22,16.60
2007,06,08,14,23,16.70
2007,06,08,14,24,16.70
2007,06,08,14,25,16.70
2007,06,08,14,26,16.80
2007,06,08,14,27,16.80
2007,06,08,14,28,16.80
2007,06,08,14,29,16.90
2007,06,08,14,30,16.80
2007,06,08,14,31,16.80
2007,06,08,14,32,16.80
2007,06,08,14,33,16.80
2007,06,08,14,34,16.90
2007,06,08,14,35,16.90
2007,06,08,14,36,17.00
2007,06,08,14,37,17.00
2007,06,08,14,38,17.00
2007,06,08,14,39,16.90
2007,06,08,14,40,16.90
2007,06,08,14,41,16.80
2007,06,08,14,42,16.70
2007,06,08,14,43,16.80
2007,06,08,14,44,16.80
2007,06,08,14,45,16.70
2007,06,08,14,46,16.80
2007,06,08,14,47,16.80
2007,06,08,14,48,16.80
2007,06,08,14,49,16.70
2007,06,08,14,50,16.80
2007,06,08,14,51,16.80
2007,06,08,14,52,16.80
2007,06,08,14,53,16.90
2007,06,08,14,54,16.90
2007,06,08,14,55,16.90
2007,06,08,14,56,16.90
2007,06,08,14,57,16.90
2007,06,08,14,58,16.90
2007,06,08,14,59,16.90
2007,06,08,15,00,16.90
2007,06,08,15,01,16.90
2007,06,08,15,02,16.90
2007,06,08,15,03,17.00
2007,06,08,15,04,17.00
2007,06,08,15,05,16.90
2007,06,08,15,06,16.90
2007,06,08,15,07,16.90
2007,06,08,15,08,16.90
2007,06,08,15,09,16.90
2007,06,08,15,10,16.90
2007,06,08,15,11,16.90
2007,06,08,15,12,16.90
2007,06,08,15,13,16.90
2007,06,08,15,14,16.90
2007,06,08,15,15,16.90
2007,06,08,15,16,16.90
2007,06,08,15,17,16.90
2007,06,08,15,18,16.90
2007,06,08,15,19,16.90
2007,06,08,15,20,16.90
2007,06,08,15,21,16.90
2007,06,08,15,22,16.90
2007,06,08,15,23,17.00
2007,06,08,15,24,17.00
2007,06,08,15,25,16.90
2007,06,08,15,26,16.90
2007,06,08,15,27,16.90
2007,06,08,15,28,16.80
2007,06,08,15,29,16.80
2007,06,08,15,30,16.90
2007,06,08,15,31,17.00
2007,06,08,15,32,17.10
2007,06,08,15,33,17.10
2007,06,08,15,34,17.00
2007,06,08,15,35,17.00
2007,06,08,15,36,16.90
2007,06,08,15,37,16.80
2007,06,08,15,38,16.80
2007,06,08,15,39,16.80
2007,06,08,15,40,16.80
2007,06,08,15,41,16.80
2007,06,08,15,42,16.80
2007,06,08,15,43,16.80
2007,06,08,15,44,16.80
2007,06,08,15,45,16.90
2007,06,08,15,46,16.90
2007,06,08,15,47,17.00
2007,06,08,15,48,17.00
2007,06,08,15,49,17.10
2007,06,08,15,50,17.20
2007,06,08,15,51,17.20
2007,06,08,15,52,17.20
2007,06,08,15,53,17.20
2007,06,08,15,54,17.20
2007,06,08,15,55,17.30
2007,06,08,15,56,17.30
2007,06,08,15,57,17.30
2007,06,08,15,58,17.30
2007,06,08,15,59,17.20
2007,06,08,16,00,17.20
2007,06,08,16,01,17.10
2007,06,08,16,02,17.10
2007,06,08,16,03,17.20
2007,06,08,16,04,17.20
2007,06,08,16,05,17.20
2007,06,08,16,06,17.10
2007,06,08,16,07,17.00
2007,06,08,16,08,17.00
2007,06,08,16,09,16.90
2007,06,08,16,10,16.80
2007,06,08,16,11,16.80
2007,06,08,16,12,16.80
2007,06,08,16,13,16.90
2007,06,08,16,14,16.80
2007,06,08,16,15,16.80
2007,06,08,16,16,16.80
2007,06,08,16,17,16.80
2007,06,08,16,18,16.80
2007,06,08,16,19,16.70
2007,06,08,16,20,16.70
2007,06,08,16,21,16.60
2007,06,08,16,22,16.50
2007,06,08,16,23,16.40
2007,06,08,16,24,16.40
2007,06,08,16,25,16.40
2007,06,08,16,26,16.30
2007,06,08,16,27,16.30
2007,06,08,16,28,16.30
2007,06,08,16,29,16.30
2007,06,08,16,30,16.30
2007,06,08,16,31,16.30
2007,06,08,16,32,16.30
2007,06,08,16,33,16.30
2007,06,08,16,34,16.40
2007,06,08,16,35,16.40
2007,06,08,16,36,16.40
2007,06,08,16,37,16.40
2007,06,08,16,38,16.50
2007,06,08,16,39,16.50
2007,06,08,16,40,16.50
2007,06,08,16,41,16.50
2007,06,08,16,42,16.40
2007,06,08,16,43,16.40
2007,06,08,16,44,16.30
2007,06,08,16,45,16.30
2007,06,08,16,46,16.20
2007,06,08,16,47,16.10
2007,06,08,16,48,16.10
2007,06,08,16,49,16.10
2007,06,08,16,50,16.10
2007,06,08,16,51,16.10
2007,06,08,16,52,16.10
2007,06,08,16,53,16.10
2007,06,08,16,54,16.10
2007,06,08,16,55,16.20
2007,06,08,16,56,16.10
2007,06,08,16,57,16.10
2007,06,08,16,58,16.10
2007,06,08,16,59,16.10
2007,06,08,17,00,16.20
2007,06,08,17,01,16.20
2007,06,08,17,02,16.10
2007,06,08,17,03,16.10
2007,06,08,17,04,16.10
2007,06,08,17,05,16.10
2007,06,08,17,06,16.10
2007,06,08,17,07,16.10
2007,06,08,17,08,16.20
2007,06,08,17,09,16.20
2007,06,08,17,10,16.20
2007,06,08,17,11,16.20
2007,06,08,17,12,16.20
2007,06,08,17,13,16.30
2007,06,08,17,14,16.30
2007,06,08,17,15,16.40
2007,06,08,17,16,16.40
2007,06,08,17,17,16.40
2007,06,08,17,18,16.40
2007,06,08,17,19,16.40
2007,06,08,17,20,16.50
2007,06,08,17,21,16.50
2007,06,08,17,22,16.50
2007,06,08,17,23,16.40
2007,06,08,17,24,16.20
2007,06,08,17,25,16.10
2007,06,08,17,26,16.00
2007,06,08,17,27,16.00
2007,06,08,17,28,16.00
2007,06,08,17,29,15.90
2007,06,08,17,30,15.80
2007,06,08,17,31,15.70
2007,06,08,17,32,15.60
2007,06,08,17,33,15.70
2007,06,08,17,34,15.60
2007,06,08,17,35,15.60
2007,06,08,17,36,15.60
2007,06,08,17,37,15.60
2007,06,08,17,38,15.50
2007,06,08,17,39,15.50